Theta_e
287 288 289 289 288 288 288 288 285 286 286 290 293 293 294 295 295 296 296 297 297 297 297 297 296 296 296 296 296 296 297 296 298 297 296 296 294 292 291 289 288 287 285 285
282 287 287 284 285 286 289 289 289 289 289 296 297 298 294 296 296 296 298 298 298 298 297 296 297 296 296 295 295 294 295 295 296 293 292 291 291 290 289 287 286 285 284 284
270 281 282 275 282 285 286 289 289 286 290 294 293 293 293 294 295 294 294 294 295 294 295 295 294 294 294 293 292 290 289 288 288 288 288 289 288 288 287 285 284 283 283 282
267 270 263 279 285 286 287 288 290 290 291 290 290 291 292 293 292 292 293 293 293 293 292 292 291 290 288 286 286 286 286 285 285 285 286 285 284 285 283 283 282 281 281 281
267 260 273 278 280 281 281 281 287 286 288 288 290 289 290 292 291 292 293 292 291 290 289 289 288 285 283 284 284 285 286 285 285 284 284 283 283 282 280 279 278 278 279 279
262 265 264 277 282 288 288 277 286 287 287 287 288 282 286 292 291 292 291 290 290 287 287 285 283 282 282 283 282 283 284 284 285 283 281 280 281 279 278 279 280 282 283 283
275 273 272 281 282 287 272 276 280 284 286 285 284 287 291 291 292 291 290 289 289 287 285 284 283 281 281 281 281 282 281 281 280 280 279 279 278 282 283 283 282 281 281 281
269 272 270 284 283 281 283 283 284 284 285 285 287 288 289 290 289 288 288 287 285 282 282 283 281 280 279 280 281 279 278 278 277 274 278 280 284 282 282 281 280 280 279 279
276 276 283 285 284 287 287 285 284 284 286 288 287 287 288 288 286 285 284 284 282 279 279 280 278 279 277 278 278 277 273 272 272 274 275 276 282 281 280 280 279 278 278 278
275 279 279 281 284 285 287 286 286 286 286 286 287 287 286 285 285 284 281 279 278 277 275 275 276 276 278 277 277 272 273 275 274 273 273 275 276 277 278 279 278 278 278 277
273 280 280 282 283 285 285 286 287 286 286 287 286 286 285 284 281 280 279 277 275 277 275 273 273 273 276 279 273 273 273 277 279 276 274 275 276 273 274 274 277 276 274 275
273 280 280 281 284 284 283 284 285 284 284 284 285 285 282 280 279 278 277 275 273 274 271 270 270 272 271 276 278 272 279 279 279 279 278 278 279 280 284 284 284 284 284 281
279 282 282 283 284 283 284 284 285 284 284 283 282 282 278 278 277 276 272 271 270 270 269 273 272 271 271 272 275 281 280 279 278 278 278 278 278 279 278 281 285 286 286 285
281 279 279 280 281 281 283 282 280 278 278 279 278 275 275 276 277 276 275 273 273 271 265 266 270 270 269 270 275 279 279 279 277 278 279 278 277 277 276 274 275 277 283 283
276 275 276 277 277 275 276 276 274 275 275 275 274 278 280 279 277 273 270 270 270 268 268 262 267 266 266 269 274 275 276 276 276 277 277 278 278 277 275 274 273 272 273 275
269 270 271 271 272 270 270 270 269 271 271 271 271 272 274 273 265 265 266 263 263 262 264 264 264 265 267 269 272 273 273 274 275 275 275 275 275 274 274 273 271 270 269 268
263 266 261 262 265 266 266 267 267 266 266 266 267 268 266 264 265 264 259 257 259 257 257 260 262 265 267 269 270 271 271 270 271 270 270 271 271 271 270 269 268 268 268 273
260 261 262 262 262 262 261 261 261 261 260 262 263 265 261 261 262 258 257 256 257 257 258 260 263 264 266 268 269 269 268 268 268 267 267 267 267 267 267 266 266 265 264 267
256 258 259 260 260 259 258 257 257 258 258 258 260 259 258 258 257 257 258 256 255 255 257 260 266 263 264 268 267 267 267 266 266 265 265 264 264 264 263 263 262 262 261 260
254 255 256 256 256 254 254 254 255 255 255 255 257 256 255 256 256 257 256 253 253 255 257 260 261 262 263 263 265 264 264 264 263 263 262 262 261 260 260 260 259 256 254 254
251 252 253 253 253 252 251 252 253 253 254 256 256 255 255 256 257 259 258 257 259 260 260 261 261 261 262 262 263 262 262 262 261 260 260 259 259 258 257 257 255 257 254 255
248 248 250 250 249 249 249 249 251 253 255 256 256 257 256 257 258 258 259 259 261 262 261 261 261 262 261 262 261 261 260 260 259 258 258 257 256 256 255 256 254 253 253 251
247 248 249 248 248 249 247 248 250 253 254 255 256 256 257 258 259 258 257 259 261 261 260 261 262 261 261 260 260 259 259 258 258 257 256 256 255 254 255 255 255 253 250 249
246 246 247 247 247 247 247 249 250 252 253 254 255 256 257 256 256 258 259 259 259 258 260 260 261 262 259 258 258 257 257 257 256 255 255 257 254 254 253 252 250 248 247 247
246 247 247 248 248 248 248 250 251 254 254 254 254 255 255 256 256 256 256 256 259 257 257 258 259 258 256 256 256 256 255 255 254 253 252 251 250 249 249 247 246 246 245 245
245 246 246 246 247 249 250 252 252 254 254 253 253 254 254 255 255 256 256 256 256 256 255 255 255 255 255 254 254 254 254 253 253 252 250 247 245 246 245 246 246 247 247 246
245 248 245 246 248 250 251 252 252 252 254 253 252 253 253 254 254 254 254 254 254 254 254 254 254 254 254 253 252 252 252 251 251 249 246 246 245 245 246 247 246 247 248 247
Wind_Speed
3 2 3 3 6 5 5 7 6 13 10 29 15 14 11 9 8 9 7 8 8 6 8 8 7 8 8 8 6 6 7 7 10 8 6 6 7 7 7 7 7 7 7 7
3 5 5 6 11 10 13 16 15 21 23 23 21 14 6 10 10 11 12 11 10 9 9 8 7 7 7 6 7 5 7 9 8 6 7 8 7 7 7 7 7 7 7 7
4 1 4 6 12 13 8 6 8 14 21 18 15 11 5 9 7 6 7 7 9 9 8 7 8 8 8 8 6 6 7 7 7 7 7 7 7 7 7 8 7 7 7 7
4 5 2 10 4 0 7 7 9 10 6 5 6 8 8 2 3 6 6 9 10 9 11 8 7 6 8 9 8 7 7 6 6 6 6 4 4 6 4 4 6 5 6 6
4 5 6 11 9 6 7 5 2 2 4 3 5 8 4 2 1 3 5 5 5 5 5 8 8 9 7 8 8 8 7 7 5 4 5 4 6 6 4 4 3 4 3 5
2 6 10 10 1 6 6 5 6 3 3 4 4 7 8 8 5 8 7 4 5 6 5 5 6 7 8 7 6 7 8 9 7 4 4 5 4 4 2 2 4 4 4 4
11 8 8 15 6 2 5 9 5 4 5 5 4 7 13 8 8 5 6 7 5 5 7 8 5 7 8 7 6 6 8 6 5 4 4 4 3 2 3 2 3 4 4 3
4 5 12 8 3 8 5 3 6 4 7 9 9 11 8 10 8 7 9 8 7 7 6 6 5 6 8 7 6 5 4 6 5 3 1 2 2 2 4 3 4 3 4 3
11 9 7 3 4 4 6 4 5 5 9 7 7 8 8 9 8 6 7 7 4 4 7 6 6 5 7 5 7 6 2 2 3 4 3 1 2 4 3 4 4 4 2 2
5 9 7 7 5 4 6 7 6 6 7 4 8 7 8 8 8 5 4 4 3 6 6 7 7 9 8 7 5 5 3 1 2 3 3 3 2 1 2 3 3 5 5 4
4 6 3 5 5 6 6 4 6 6 6 8 6 10 6 6 5 5 4 2 2 4 3 4 4 7 9 7 4 3 4 2 1 1 1 0 1 1 1 3 3 3 3 4
5 5 3 7 10 6 8 9 9 7 7 5 6 9 3 6 4 3 4 2 3 3 3 4 3 5 6 8 7 3 5 2 2 1 2 1 2 2 4 1 2 4 8 4
13 9 7 12 11 8 13 10 8 6 6 6 3 5 2 3 2 2 0 2 2 4 4 5 4 4 6 7 7 6 3 1 1 0 3 2 3 4 6 10 16 8 6 7
9 3 12 6 7 7 5 6 5 3 2 3 3 2 4 4 3 4 3 3 2 1 1 3 5 6 7 8 8 2 2 3 2 1 3 5 4 4 3 3 5 5 12 12
2 3 4 7 2 4 6 6 6 5 6 6 4 5 4 6 5 3 0 1 1 2 3 4 4 5 7 7 4 3 3 2 2 2 4 5 4 6 5 4 5 4 4 10
8 6 2 4 5 6 7 6 5 7 7 8 9 9 6 2 2 1 2 3 2 1 4 4 4 6 7 7 4 2 4 7 6 3 4 5 5 5 5 5 5 4 4 4
4 5 5 1 5 8 6 6 6 7 9 8 8 9 6 2 1 2 3 4 5 4 3 5 6 7 7 6 4 2 4 5 7 6 5 5 5 6 6 5 4 3 3 5
1 4 4 6 8 8 7 6 7 6 7 8 9 9 4 4 5 4 3 3 4 5 4 6 4 6 7 6 4 4 5 5 6 5 5 6 6 5 5 5 4 5 5 7
2 4 5 7 6 6 6 6 6 7 8 6 7 4 2 0 2 3 3 4 3 3 4 6 7 7 8 7 7 4 4 5 7 7 6 7 6 5 5 5 5 5 4 4
3 3 4 5 5 3 6 5 7 7 6 6 4 1 1 2 3 4 4 3 1 2 2 4 5 7 7 9 7 4 6 6 7 6 5 5 5 5 5 6 5 4 3 2
3 3 3 4 4 4 5 5 5 6 6 5 2 3 2 2 4 3 4 3 3 3 3 7 6 5 6 6 6 5 6 5 6 5 5 4 4 4 4 4 3 2 1 1
3 3 4 3 3 4 5 5 4 4 4 4 3 3 4 4 5 6 6 2 1 4 4 4 5 8 7 8 6 6 5 5 4 4 4 3 3 3 3 2 1 0 1 1
3 2 2 1 1 3 4 4 4 4 5 5 5 4 4 3 3 3 3 5 3 6 4 4 8 10 10 5 5 4 4 4 4 2 2 2 2 2 1 1 1 1 2 2
2 2 2 2 3 4 4 4 4 3 4 5 6 6 3 4 5 4 4 5 7 6 5 5 8 10 8 4 4 4 4 3 2 2 1 1 1 1 2 2 2 2 2 3
1 1 3 3 3 1 1 1 2 3 5 5 6 6 8 6 3 2 3 4 6 4 4 8 9 8 4 4 3 2 2 2 2 2 1 1 2 2 3 3 3 3 3 3
2 2 1 2 0 1 2 2 2 2 2 3 4 4 4 4 3 3 3 5 4 5 4 4 4 3 3 3 3 3 3 3 4 3 3 3 3 4 4 4 3 4 4 5
3 2 3 3 3 3 3 3 3 3 3 2 3 2 3 3 4 4 4 3 3 3 3 3 3 4 3 4 3 4 4 4 5 4 3 4 4 4 4 5 5 5 5 5
Wind_Direction
230 181 115 208 267 267 253 271 258 279 283 284 290 290 294 299 300 311 309 321 305 282 288 290 286 269 255 250 249 233 231 233 240 245 229 232 233 220 207 199 196 190 189 199
286 226 233 242 232 221 230 246 246 254 256 270 277 283 309 297 306 310 320 331 319 316 327 323 323 331 322 300 280 245 239 243 250 244 230 230 230 221 206 204 195 184 202 200
276 138 157 299 235 205 206 212 220 242 253 268 290 328 17 320 359 16 354 352 351 338 335 331 336 334 331 327 325 316 277 262 250 239 236 236 232 215 209 198 180 199 197 190
218 32 304 245 310 17 205 219 227 255 302 24 318 298 270 158 39 1 348 345 336 330 327 321 322 332 325 319 310 304 292 285 285 267 244 231 218 227 206 181 189 185 190 191
159 188 299 305 273 183 166 260 48 202 317 322 321 316 240 206 27 304 285 295 276 280 297 313 324 327 320 316 313 311 301 301 295 269 255 233 221 204 177 152 159 175 177 180
101 170 207 241 214 112 119 274 173 152 285 311 10 339 289 273 288 310 286 252 303 320 307 305 322 323 317 311 316 309 316 311 306 279 255 240 211 181 183 158 171 154 157 174
221 228 275 255 207 143 125 250 208 185 230 264 251 220 271 292 299 289 275 327 339 326 312 305 339 328 306 308 306 309 302 297 314 316 277 251 168 162 158 138 131 142 155 164
194 209 244 227 81 173 196 210 180 217 244 231 253 274 271 289 291 307 317 335 335 319 317 321 340 322 310 301 311 306 301 321 336 334 274 225 166 113 117 127 131 139 134 122
182 202 222 155 145 186 162 176 242 212 258 246 255 259 273 285 307 313 305 312 316 311 320 326 328 309 306 301 310 299 324 325 330 350 357 319 184 138 118 143 132 117 122 121
78 258 233 234 268 178 193 216 246 235 249 242 256 270 272 287 293 298 292 296 310 328 328 322 331 313 294 298 301 304 292 359 12 45 352 4 12 64 132 149 150 153 154 157
272 289 307 303 292 303 322 266 273 256 228 243 252 270 234 267 277 273 249 262 245 281 276 275 299 300 309 325 328 295 299 317 48 126 58 8 360 143 72 293 173 154 174 140
234 234 187 266 281 297 290 279 257 268 285 237 225 265 262 270 266 287 328 329 312 310 295 285 294 302 300 327 341 290 266 283 277 144 98 41 44 64 95 103 136 157 152 153
257 279 259 267 273 263 265 248 255 255 258 273 241 247 242 271 227 226 246 14 339 290 287 299 289 269 329 335 320 267 227 220 291 204 99 84 40 66 79 50 52 75 101 128
272 2 283 261 287 345 345 349 354 343 291 257 245 235 239 245 228 235 225 231 230 251 333 328 337 346 336 321 304 355 68 113 110 290 91 96 85 83 65 57 59 24 48 62
315 21 282 295 319 16 356 354 353 346 338 331 296 275 249 269 263 216 89 272 137 82 35 9 345 327 324 319 334 44 50 18 37 82 72 90 94 88 90 79 74 50 23 46
319 290 324 7 3 2 348 353 328 326 333 328 320 316 295 268 149 109 35 349 212 34 8 358 344 325 327 321 335 57 80 68 62 53 55 67 70 89 98 80 74 59 40 21
354 318 348 299 342 325 320 321 325 319 317 312 311 309 291 252 176 124 63 39 78 62 357 342 336 335 334 339 328 55 74 65 65 58 50 51 63 61 56 76 83 60 25 64
1 295 290 291 303 311 310 310 307 311 297 298 300 291 272 232 227 168 144 125 89 58 23 338 336 350 343 14 3 46 66 78 76 74 67 60 57 62 72 84 75 69 47 41
311 308 310 305 309 298 293 294 291 290 285 290 300 277 268 116 128 124 106 85 73 81 346 333 14 16 9 28 35 32 71 89 82 72 71 77 67 58 72 75 72 62 55 59
316 299 305 298 312 274 288 282 286 286 286 300 279 120 74 68 74 93 82 77 275 225 320 356 24 31 18 29 31 43 60 68 80 78 75 78 81 80 77 78 85 78 71 62
286 296 302 304 298 293 287 287 299 310 310 313 215 139 121 65 99 104 92 83 338 37 60 48 41 37 40 30 31 46 61 61 70 79 79 82 89 82 80 79 88 98 107 147
277 296 297 307 316 309 309 320 330 329 355 2 29 88 94 80 85 80 55 50 27 64 53 53 50 52 50 45 41 44 52 62 69 73 81 86 92 94 85 80 99 149 250 252
277 258 272 283 230 258 328 1 359 16 28 20 34 52 70 63 59 93 87 356 54 56 42 62 73 63 56 53 49 52 51 50 55 58 65 69 83 92 131 217 253 271 309 316
312 325 279 296 87 61 30 342 5 16 47 40 41 26 28 70 53 31 45 56 55 46 40 56 56 59 52 46 44 41 39 40 38 10 3 52 51 270 259 263 278 287 288 288
98 21 28 50 64 172 186 355 31 27 47 43 41 32 31 32 66 28 33 28 44 48 39 33 41 42 40 34 21 2 331 313 287 289 302 273 277 274 267 257 249 246 252 251
102 109 105 79 130 356 41 37 54 34 68 70 46 36 31 28 40 39 38 33 26 24 29 19 15 15 6 343 325 310 299 301 307 299 282 256 251 257 262 266 262 259 255 255
38 87 47 22 2 10 38 45 65 43 28 43 76 37 31 24 29 29 18 13 9 3 4 356 343 330 313 304 298 289 282 279 279 270 264 268 266 260 264 262 260 258 258 252